Weather History for Pompano Beach, FL

Change the Weather History Date:

Tuesday, October 9, 2012

  Actual Average Record
Temperature  
Mean Temperature 78 °F -  
Max Temperature 84 °F 88 °F 94 °F (1981)
Min Temperature 73 °F 71 °F 64 °F (1954)
Cooling Degree Days 14    
Growing Degree Days 28 (Base 50)    
Moisture  
Dew Point 75 °F    
Average Humidity 90    
Maximum Humidity 100    
Minimum Humidity 74    
Precipitation  
Precipitation 0.01 in - - ()
Sea Level Pressure  
Sea Level Pressure 29.99 in    
Wind  
Wind Speed 4 mph (NNE)    
Max Wind Speed 13 mph    
Max Gust Speed -    
Visibility 7 miles    
Events Fog , Rain    
Averages and records for this station are not official NWS values.
T = Trace of Precipitation, MM = Missing Value Source: NWS Daily Summary

Daily Weather History Graph

Daily Weather History Graph

Search for Another Location

Airport:

Trip Planner

Search our weather history database for the weather conditions in past years. The results will help you decide how hot, cold, wet, or windy it might be!

Date:

Astronomy

Oct. 09, 2012 Rise Set
Actual Time 7:16 AM EDT 6:57 PM EDT
Civil Twilight 6:53 AM EDT 7:21 PM EDT
Nautical Twilight 6:26 AM EDT 7:47 PM EDT
Astronomical Twilight 6:00 AM EDT 8:14 PM EDT
Moon 1:25 AM EDT (10/9) 2:53 PM EDT (10/9)
Length of Visible Light 12h 27m
Length of Day
11h 41m
Last Quarter, 37% of the Moon is Illuminated
Oct 9
Last Quarter
Oct 15
New
Oct 21
First Quarter
Oct 29
Full
Nov 6
Last Quarter

Hourly Weather History & Observations

Time (EDT) Temp. Heat Index Dew Point Humidity Pressure Visibility Wind Dir Wind Speed Gust Speed Precip Events Conditions
12:53 AM 77.0 °F - 77.0 °F 100% 29.99 in 10.0 mi WNW 3.5 mph - N/A   Clear
1:53 AM 75.9 °F - 75.9 °F 100% 29.97 in 10.0 mi WNW 3.5 mph - N/A   Clear
2:53 AM 75.9 °F - 75.9 °F 100% 29.97 in 10.0 mi Calm Calm - N/A   Clear
5:09 AM 75.2 °F - 75.2 °F 100% 29.96 in 1.0 mi Calm Calm - N/A   Mist
5:16 AM 75.2 °F - 75.2 °F 100% 29.96 in 0.8 mi NNW 3.5 mph - N/A   Mist
5:23 AM 75.2 °F - 75.2 °F 100% 29.96 in 0.5 mi Calm Calm - N/A Fog Fog
5:37 AM 75.2 °F - - N/A% 29.97 in 0.8 mi North 3.5 mph - N/A   Mist
5:45 AM 75.2 °F - - N/A% 29.97 in 1.2 mi NNW 4.6 mph - N/A   Overcast
5:53 AM 75.0 °F - - N/A% 29.97 in 1.5 mi NW 3.5 mph - N/A   Overcast
6:08 AM 75.2 °F - 75.2 °F 100% 29.97 in 3.0 mi Calm Calm - N/A   Mostly Cloudy
6:21 AM 75.2 °F - 75.2 °F 100% 29.97 in 4.0 mi Calm Calm - N/A   Scattered Clouds
6:48 AM 75.2 °F - 75.2 °F 100% 29.97 in 1.8 mi Calm Calm - N/A   Clear
6:53 AM 73.9 °F - 73.9 °F 100% 29.98 in 1.5 mi NW 3.5 mph - N/A   Clear
7:05 AM 73.4 °F - 73.4 °F 100% 29.97 in 3.0 mi NW 4.6 mph - N/A   Clear
7:53 AM 75.0 °F - 75.0 °F 100% 29.99 in 9.0 mi North 5.8 mph - N/A   Clear
8:53 AM 79.0 °F - 75.9 °F 90% 30.00 in 10.0 mi NNW 4.6 mph - N/A   Clear
9:53 AM 81.0 °F 86.7 °F 75.0 °F 82% 30.01 in 10.0 mi North 5.8 mph - N/A   Clear
10:53 AM 82.9 °F 89.4 °F 73.9 °F 74% 30.02 in 10.0 mi Variable 4.6 mph - N/A   Scattered Clouds
11:53 AM 82.9 °F 89.4 °F 73.9 °F 74% 30.02 in 10.0 mi ENE 10.4 mph - N/A   Partly Cloudy
12:53 PM 82.9 °F 89.4 °F 73.9 °F 74% 30.01 in 10.0 mi NE 8.1 mph - N/A   Partly Cloudy
1:53 PM 84.0 °F 91.9 °F 75.0 °F 74% 29.99 in 10.0 mi East 11.5 mph - N/A   Clear
2:53 PM 82.9 °F 90.8 °F 75.9 °F 79% 29.98 in 10.0 mi ENE 10.4 mph - N/A   Clear
3:53 PM 82.0 °F 89.4 °F 75.9 °F 82% 29.97 in 10.0 mi NE 12.7 mph - N/A   Partly Cloudy
4:53 PM 82.0 °F 89.4 °F 75.9 °F 82% 29.97 in 10.0 mi NE 9.2 mph - N/A   Partly Cloudy
5:53 PM 80.1 °F 85.4 °F 75.9 °F 87% 29.97 in 10.0 mi NE 12.7 mph - N/A   Partly Cloudy
6:53 PM 80.1 °F 85.4 °F 75.9 °F 87% 29.98 in 10.0 mi NNE 10.4 mph - N/A   Clear
7:53 PM 79.0 °F - 75.0 °F 88% 29.99 in 10.0 mi ENE 8.1 mph - N/A   Clear
8:53 PM 79.0 °F - 75.0 °F 88% 30.01 in 10.0 mi NE 6.9 mph - N/A   Mostly Cloudy
9:53 PM 79.0 °F - 75.0 °F 88% 30.03 in 10.0 mi NNE 4.6 mph - N/A   Clear
10:53 PM 79.0 °F - 75.0 °F 88% 30.03 in 10.0 mi Calm Calm - N/A   Partly Cloudy
11:15 PM 78.8 °F - 77.0 °F 94% 30.03 in 10.0 mi Calm Calm - 0.01 in Rain Light Rain
11:53 PM 79.0 °F - 75.9 °F 90% 30.03 in 10.0 mi Calm Calm - 0.01 in   Mostly Cloudy